Content
SEND FEEDBACK

Daily
Averages
Monthly
Summary
India

AHMEDABAD, INDIA


Home > Asia > India
Elevation: 180 feet     Latitude: 23 04N     Longitude: 072 38E

WEATHER
 
SELECT A DAY
Number of Records: 210,743;   Date Range: 7/1/96 - 8/10/14
 
SHARE

PRINT THIS DATA

[ ← Previous Day ]
WEATHER ALMANAC - NOVEMBER 29, 2013
[ Next Day → ]
[ °C ]   °F
Weather ElementAverageHighLow
Temperature75.1 °F87.8 °F (2:10 pm)64.4 °F (4:10 am)
Dewpoint51.7 °F56 °F (8:30 pm)48.2 °F (11:40 pm)
Humidity43.6 %60 % (2:10 am)19 % (2:30 pm)
Barometer29.99 in30.06 in (9:10 am)29.92 in (2:40 pm)
Wind Speed6.3 mph11.5 mph (11:40 am)
Weather ElementAverage
Visibility2.6 mi
Wind DirectionNE (43.5 °)

Weather ElementTotal
Precipitation---
Cooling Degree Days11.1 (Base 65)
Growing Degree Days26.1 (Base 50)
Averaged from 49 records on November 29, 2013
WEATHER CONDITIONS BREAKOUT
WIND DIRECTION BREAKOUT
WEATHER BY HOUR - NOVEMBER 29, 2013
[ °C ]   °F
Local TimeTemperatureDewpointHumidityBarometerVisibilityWind DirectionWind SpeedGust SpeedPrecipitationEventsConditions
12:40 AM71.6 °F50.0 °F46 %29.98 in2.5 miENE (60°)4.6 mphSmoke
1:10 AM71.6 °F50.0 °F46 %29.98 in2.5 miENE (60°)4.6 mphSmoke
1:40 AM69.8 °F50.0 °F49 %29.98 in2.5 miNNE (30°)4.6 mphSmoke
2:10 AM66.2 °F51.8 °F60 %29.98 in2.5 miNNE (20°)4.6 mphSmoke
2:30 AM69.0 °F55.0 °F51 %29.98 in2.0 miNNE (20°)3.5 mph
2:40 AM66.2 °F51.8 °F60 %29.98 in2.5 miNNE (30°)4.6 mphSmoke
3:10 AM66.2 °F50.0 °F56 %29.98 in2.5 miNNE (30°)5.8 mphSmoke
3:40 AM66.2 °F50.0 °F56 %29.98 in2.5 miNE (40°)5.8 mphSmoke
4:10 AM64.4 °F50.0 °F59 %29.98 in2.5 miNE (40°)5.8 mphSmoke
4:40 AM64.4 °F50.0 °F59 %29.98 in2.5 miNE (40°)5.8 mphSmoke
5:10 AM64.4 °F50.0 °F59 %29.98 in2.5 miNNE (30°)4.6 mphSmoke
5:30 AM67.0 °F53.0 °F50 %29.98 in2.0 miNNE (20°)3.5 mph
5:40 AM64.4 °F50.0 °F59 %29.98 in2.5 miNNE (30°)4.6 mphSmoke
6:10 AM64.4 °F50.0 °F59 %30.01 in2.5 miNNE (30°)5.8 mphSmoke
8:10 AM66.2 °F50.0 °F56 %30.04 in1.6 miNNE (20°)6.9 mphSmoke
8:30 AM69.0 °F53.0 °F45 %30.04 in1.0 miNNE (20°)4.6 mphSmoke
9:10 AM73.4 °F51.8 °F47 %30.06 in2.2 miNE (40°)8.1 mphSmoke
9:40 AM75.2 °F51.8 °F44 %30.06 in2.5 miNE (40°)8.1 mphSmoke
10:10 AM77.0 °F51.8 °F41 %30.06 in2.5 miNE (50°)8.1 mphSmoke
10:40 AM78.8 °F51.8 °F39 %30.06 in2.5 miENE (60°)9.2 mphSmoke
11:10 AM82.4 °F53.6 °F37 %30.04 in2.5 miNE (50°)9.2 mphSmoke
11:30 AM82.0 °F55.0 °F29 %30.05 in2.0 miEast (90°)9.2 mphSmoke
11:40 AM82.4 °F53.6 °F37 %30.04 in2.5 miNE (50°)11.5 mphSmoke
12:40 PM84.2 °F53.6 °F35 %29.98 in3.1 miNE (50°)11.5 mphSmoke
1:10 PM84.2 °F51.8 °F33 %29.98 in3.1 miENE (60°)10.4 mphSmoke
1:40 PM86.0 °F51.8 °F31 %29.95 in3.1 miNE (50°)9.2 mphSmoke
2:10 PM87.8 °F51.8 °F29 %29.95 in3.7 miNNE (30°)11.5 mph
2:30 PM86.0 °F50.0 °F19 %29.95 in2.0 miNorth9.2 mph
2:40 PM87.8 °F50.0 °F27 %29.92 in3.7 miNE (50°)11.5 mph
3:10 PM87.8 °F51.8 °F29 %29.92 in3.7 miENE (60°)8.1 mph
3:40 PM86.0 °F50.0 °F29 %29.92 in3.7 miNE (40°)10.4 mph
4:10 PM86.0 °F51.8 °F31 %29.92 in3.7 miENE (70°)8.1 mph
4:40 PM84.2 °F51.8 °F33 %29.92 in3.7 miNE (50°)5.8 mph
5:10 PM84.2 °F51.8 °F33 %29.92 in3.7 miENE (60°)4.6 mph
5:30 PM82.0 °F55.0 °F29 %29.94 in2.0 miNE (50°)4.6 mph
5:40 PM80.6 °F51.8 °F37 %29.92 in3.7 miNE (40°)4.6 mph
6:40 PM75.2 °F53.6 °F47 %29.95 in2.5 miNE (50°)2.3 mphSmoke
7:10 PM73.4 °F53.6 °F50 %29.95 in2.5 miNNE (20°)2.3 mphSmoke
7:40 PM73.4 °F51.8 °F47 %29.98 in2.5 miNE (40°)3.5 mphSmoke
8:10 PM75.2 °F51.8 °F44 %29.98 in2.5 miENE (70°)3.5 mphSmoke
8:30 PM72.0 °F56.0 °F47 %29.99 in2.0 miNNE (20°)3.5 mph
8:40 PM73.4 °F53.6 °F50 %29.98 in2.5 miNNE (30°)3.5 mphSmoke
9:10 PM69.8 °F53.6 °F56 %30.01 in2.5 miNNE (20°)3.5 mphSmoke
9:40 PM73.4 °F51.8 °F47 %30.01 in2.5 miENE (60°)4.6 mphSmoke
10:10 PM73.4 °F50.0 °F44 %30.01 in2.5 miNE (50°)5.8 mphSmoke
10:40 PM73.4 °F50.0 °F44 %30.01 in2.5 miENE (60°)6.9 mphSmoke
11:10 PM73.4 °F50.0 °F44 %30.01 in2.5 miNE (50°)5.8 mphSmoke
11:30 PM73.0 °F51.0 °F35 %30.01 in2.0 miEast (90°)5.8 mph
11:40 PM73.4 °F48.2 °F41 %30.01 in2.5 miENE (60°)5.8 mphSmoke
Hourly data recorded from VAAH, located miles away from Ahmedabad, India







STORIES FROM OUR PARTNERS